Location: Krakow
(50.0830°N, 19.9170°E)
Time: 04:45:06
(UTC+02:00)

Tiros 1 - Pass Details

Date: 16 February 2023
Orbit: 627 x 662 km, 48.4° (Epoch: 25 March)

Event Time Altitude Azimuth Distance (km) Brightness Sun altitude
Rises 21:18:04 0° 260° (W) 2,911 11.0 -40.5°
Enters shadow 21:18:53 - 260° (W) 2,588 10.7 -40.6°
Reaches altitude 10° 21:20:23 10° 258° (WSW) 2,002 - -40.8°
Maximum altitude 21:24:58 72° 176° (S) 663 - -41.3°
Drops below altitude 10° 21:29:33 10° 92° (E) 2,005 - -41.9°
Sets 21:31:53 0° 90° (E) 2,915 - -42.2°
